Wind_Speed
28 27 27 26 31 36 40 44 42 30 33 42 40 34 35 35 43 44 44 49 49 54 58 55 48 72 75 77 79 77 75 74 71 66 72 61 65 62 61 49 53 48 48 48
30 32 29 31 33 33 33 40 42 40 39 45 41 38 37 38 45 42 40 43 45 53 54 60 50 61 76 79 81 79 82 80 81 70 56 62 53 59 54 52 52 52 60 51
29 29 34 33 31 33 32 33 35 35 29 47 44 39 39 37 38 40 40 39 42 50 52 50 58 44 79 81 81 76 83 82 81 82 69 62 67 47 59 59 53 59 60 49
32 30 33 34 36 33 34 25 31 38 42 41 30 38 29 34 43 42 39 39 39 42 47 48 47 50 43 84 82 81 81 76 82 70 77 73 58 66 65 60 58 53 45 40
26 29 34 31 31 32 32 27 33 33 35 39 38 39 36 33 34 45 41 40 40 40 41 42 44 45 47 49 86 81 76 80 65 68 54 64 67 56 62 54 58 62 62 48
32 30 33 35 30 33 32 32 36 35 33 35 33 33 30 21 31 40 41 42 41 42 42 42 43 41 41 36 78 84 77 86 74 71 63 68 63 72 62 60 62 63 64 60
30 26 26 30 36 31 32 29 26 26 27 31 22 27 23 27 34 25 32 38 38 38 40 39 43 45 46 44 45 49 74 82 73 79 75 77 73 64 62 69 64 60 64 65
33 29 27 35 40 32 29 25 24 25 23 21 26 26 24 33 36 37 33 31 33 33 35 38 39 41 43 46 50 53 55 53 57 68 85 74 78 86 84 73 71 72 64 63
30 33 35 38 38 30 28 33 30 29 29 32 26 21 21 34 32 35 30 34 33 34 34 34 36 38 38 40 42 47 53 56 59 59 56 64 79 73 80 79 75 70 72 68
33 35 29 36 32 38 37 34 34 32 32 30 30 31 25 30 33 31 33 33 36 38 35 36 37 38 40 42 43 44 45 47 53 58 62 64 64 60 57 67 80 76 71 68
32 29 25 29 32 29 28 32 36 32 26 24 22 21 23 21 22 25 37 36 34 37 38 38 40 41 43 45 46 48 50 50 50 52 53 57 61 63 62 61 63 62 61 59
26 27 27 24 22 21 24 30 24 35 34 36 31 34 28 25 28 32 33 32 33 38 36 38 40 41 43 46 48 49 50 53 56 57 56 56 56 59 62 62 61 58 58 58
21 19 19 17 16 18 23 29 33 35 36 38 37 33 27 33 40 35 34 34 38 39 37 37 37 39 42 45 48 50 54 57 58 59 63 63 61 62 62 61 60 57 56 55
17 17 19 21 21 27 20 19 24 30 33 37 41 35 37 32 26 20 26 31 38 36 36 36 38 39 40 42 47 50 52 56 62 64 65 65 68 68 66 65 62 59 55 54
16 15 18 22 24 29 35 34 32 32 33 32 32 33 36 33 29 20 32 37 35 33 34 37 37 39 40 42 44 47 51 54 55 59 64 66 67 69 71 69 66 62 57 52
15 13 18 18 19 17 24 29 33 34 34 36 35 32 31 34 36 34 32 34 38 37 38 38 40 42 43 47 49 51 52 52 57 57 56 57 65 70 70 71 68 64 60 54
16 13 14 15 14 22 22 15 18 20 23 27 31 29 27 27 29 33 39 45 41 38 40 42 44 47 48 51 55 57 58 57 55 58 54 51 54 62 70 72 69 65 61 56
15 16 11 10 14 17 14 10 19 17 17 19 22 23 18 28 34 41 42 40 41 41 43 45 49 51 53 56 60 63 65 61 59 56 58 53 49 47 53 69 71 67 61 56
13 12 13 12 13 11 8 18 19 18 21 21 24 32 32 37 39 38 43 45 43 44 48 52 55 57 58 64 66 63 52 53 57 51 56 52 52 49 49 54 71 68 62 56
15 16 20 16 19 17 19 27 24 29 28 31 33 36 36 38 43 44 47 45 48 49 53 56 59 62 65 58 43 44 40 40 39 42 49 50 49 45 47 44 65 67 63 56
13 14 13 13 17 15 19 22 23 23 25 25 28 29 33 41 46 49 49 49 52 55 58 61 62 56 39 34 38 38 33 26 30 36 39 42 40 38 38 45 57 61 60 54
9 10 11 13 14 18 19 22 26 30 26 29 30 34 40 42 43 47 52 51 52 53 55 53 42 30 29 30 34 33 32 28 33 37 37 39 37 36 40 44 49 56 55 52
8 12 14 16 19 22 23 30 33 37 41 40 43 38 38 37 38 42 40 43 47 47 40 34 28 26 31 28 25 27 28 23 19 19 25 36 42 36 42 46 51 52 54 50
9 14 19 22 22 25 29 34 38 46 49 45 36 34 30 26 26 30 34 33 32 31 27 25 20 22 17 14 20 19 22 17 9 18 20 28 34 40 42 46 49 51 50 48
13 18 20 20 25 28 36 45 47 53 35 28 28 29 27 23 23 25 28 27 26 23 21 18 21 21 17 15 15 19 13 11 20 26 33 41 44 46 46 47 47 46 46 45
17 21 27 23 26 38 43 50 47 32 29 23 25 26 26 24 23 21 24 24 22 19 19 20 16 17 16 15 18 14 16 21 27 42 50 53 51 49 46 44 43 42 38 34
Wind_Direction
270 267 267 262 257 251 246 248 247 245 250 255 263 257 254 248 258 252 248 247 240 243 246 248 250 223 222 224 214 223 228 231 238 235 224 216 220 228 227 232 223 222 236 240
270 268 263 258 257 261 257 252 253 254 255 257 258 256 251 248 253 258 258 250 240 240 244 247 245 233 220 225 228 224 225 231 235 238 242 231 229 236 240 249 241 225 250 238
275 271 267 263 259 257 256 254 253 254 251 255 256 256 257 255 255 254 253 251 243 240 243 248 250 243 224 226 228 231 223 226 232 237 232 237 240 229 259 260 258 261 241 225
277 277 268 270 264 262 259 258 260 250 251 256 263 256 252 249 251 250 249 249 247 241 240 242 249 257 255 224 229 229 231 226 229 235 238 230 233 247 246 239 255 252 258 231
279 273 276 270 268 261 255 245 245 252 252 254 254 258 258 254 262 256 250 250 246 245 243 243 245 247 248 246 228 232 235 234 231 229 228 236 238 240 237 240 247 256 256 245
283 272 270 273 269 265 263 255 254 254 256 256 258 259 257 254 264 258 254 250 249 246 243 243 245 245 247 242 230 234 234 235 241 245 245 243 239 236 243 248 248 250 255 265
295 279 271 280 279 273 267 261 265 253 255 261 266 249 237 230 230 239 254 250 250 248 248 244 241 241 242 240 237 240 242 242 240 240 241 242 244 246 250 250 247 252 252 259
275 269 265 273 266 267 265 266 259 243 237 238 244 254 265 238 247 243 249 249 248 247 246 246 244 243 243 241 239 238 236 240 250 254 247 241 236 243 243 248 249 252 253 256
269 270 263 255 252 252 255 257 268 250 248 232 242 245 269 258 247 249 243 246 246 247 247 246 247 248 244 244 243 240 241 241 240 243 248 249 245 243 239 242 244 245 254 252
280 274 262 257 258 251 251 247 250 250 256 253 252 251 268 255 259 255 247 244 245 246 249 249 250 250 250 250 248 246 244 242 243 242 241 243 245 247 248 244 244 249 253 254
287 276 270 263 262 255 246 252 252 242 237 244 237 243 246 244 243 249 250 246 247 249 251 249 250 250 251 250 250 251 251 248 246 245 244 244 243 244 244 243 243 245 247 249
280 264 269 274 268 266 247 248 227 246 241 251 256 247 250 245 215 238 255 254 253 251 250 251 252 253 254 255 254 253 250 251 253 250 246 246 245 244 245 245 244 244 246 248
279 270 272 272 275 260 256 252 257 259 252 242 244 254 253 246 254 258 256 255 254 255 253 254 257 259 263 264 264 265 265 260 254 251 251 248 244 244 244 245 245 243 242 242
271 270 272 268 254 259 256 248 255 255 255 251 250 253 262 251 256 240 251 269 258 253 255 255 255 256 257 261 265 267 267 268 267 264 257 249 247 244 242 242 244 244 241 239
276 275 267 262 261 249 250 254 252 254 256 253 249 244 239 240 262 271 253 257 259 254 257 260 263 264 262 264 267 268 269 266 266 267 264 259 251 244 242 240 240 241 243 240
293 286 272 273 270 276 267 263 264 256 257 264 266 264 246 241 243 255 263 269 260 255 262 265 269 273 267 272 274 272 270 266 263 264 268 262 250 248 241 237 236 237 240 240
295 290 285 282 276 270 283 286 288 283 274 266 262 265 262 262 262 266 261 255 259 269 269 271 272 271 270 273 278 279 279 275 268 261 254 256 248 241 237 234 232 231 232 235
294 291 291 308 290 278 291 224 259 270 259 259 271 270 273 255 257 254 256 265 267 268 269 271 272 273 276 278 281 281 278 276 267 260 249 249 243 240 234 228 226 226 227 228
302 288 280 295 307 299 280 262 275 261 277 278 265 264 261 255 258 262 268 269 271 271 270 272 276 279 281 285 287 285 271 264 259 248 244 246 241 240 237 228 216 218 222 223
300 284 283 291 288 293 297 293 294 293 298 283 280 278 273 270 266 265 270 273 271 273 278 278 282 285 288 288 275 277 285 270 256 243 242 243 237 236 234 225 212 208 213 218
309 308 304 298 295 300 296 299 299 294 288 291 282 278 277 273 271 268 268 268 271 273 274 277 282 285 276 266 268 278 282 268 252 244 236 227 225 230 226 215 205 202 206 210
298 302 308 307 312 307 304 308 303 294 295 295 291 284 279 274 272 269 267 268 270 273 276 282 277 267 258 269 273 273 271 258 252 240 230 223 212 213 215 200 192 193 199 205
304 301 301 291 306 297 298 303 303 302 298 297 301 296 280 276 269 269 271 272 271 278 275 271 267 257 269 270 264 260 259 264 238 206 207 210 210 204 190 179 182 188 195 202
326 327 315 304 300 303 304 308 307 312 305 302 296 292 289 271 268 269 267 271 273 268 271 271 274 278 286 252 245 246 247 251 216 187 192 185 173 173 172 171 178 185 193 199
331 341 340 317 304 312 307 312 312 306 310 298 295 293 285 266 277 280 274 278 274 274 275 272 272 272 262 255 239 243 232 186 191 186 166 159 156 159 163 169 175 182 191 200
323 320 315 322 326 328 324 314 310 308 304 297 285 283 285 279 280 279 272 273 272 275 268 270 271 265 254 224 213 207 188 183 186 168 167 167 153 159 166 170 177 184 192 195
Height
5723 5723 5722 5722 5721 5720 5721 5720 5722 5724 5722 5721 5722 5725 5726 5729 5724 5729 5734 5736 5745 5746 5748 5749 5753 5760 5769 5776 5775 5786 5791 5795 5796 5799 5803 5804 5807 5816 5821 5826 5830 5831 5834 5839
5717 5715 5714 5712 5712 5711 5712 5712 5713 5714 5714 5713 5714 5716 5718 5719 5718 5721 5723 5726 5732 5734 5736 5739 5746 5750 5758 5764 5769 5770 5776 5782 5785 5791 5796 5800 5804 5807 5813 5817 5821 5823 5826 5829
5708 5708 5704 5704 5703 5702 5702 5703 5703 5705 5706 5702 5704 5707 5708 5711 5711 5712 5714 5716 5719 5722 5726 5731 5734 5739 5745 5748 5755 5758 5762 5769 5772 5776 5785 5787 5796 5796 5804 5808 5812 5814 5814 5817
5700 5698 5696 5694 5694 5694 5693 5695 5693 5694 5693 5695 5697 5697 5700 5700 5700 5702 5705 5708 5711 5713 5716 5720 5722 5726 5730 5735 5741 5747 5756 5759 5763 5766 5770 5779 5783 5791 5792 5798 5801 5802 5810 5811
5693 5689 5686 5686 5685 5684 5685 5685 5683 5683 5684 5685 5688 5687 5691 5693 5692 5691 5697 5699 5702 5705 5709 5711 5713 5715 5718 5723 5729 5734 5739 5743 5745 5754 5756 5766 5770 5777 5786 5786 5792 5796 5802 5802
5682 5681 5678 5676 5676 5675 5675 5675 5674 5674 5675 5674 5679 5680 5683 5689 5685 5683 5686 5689 5692 5696 5699 5703 5705 5708 5709 5712 5718 5721 5725 5731 5735 5742 5745 5753 5759 5766 5773 5779 5785 5790 5792 5795
5675 5673 5672 5669 5666 5667 5666 5667 5667 5671 5672 5671 5676 5675 5678 5675 5673 5676 5677 5678 5682 5686 5689 5692 5696 5699 5701 5705 5708 5711 5714 5719 5724 5731 5734 5739 5747 5753 5760 5767 5771 5776 5783 5786
5665 5664 5669 5661 5658 5661 5662 5662 5662 5660 5664 5668 5661 5664 5665 5667 5663 5667 5669 5671 5673 5676 5678 5681 5685 5688 5691 5695 5699 5702 5707 5711 5713 5716 5722 5728 5735 5743 5749 5755 5759 5766 5771 5775
5656 5653 5651 5653 5651 5649 5655 5652 5655 5653 5655 5653 5655 5659 5657 5655 5658 5658 5662 5663 5666 5667 5670 5673 5674 5676 5681 5685 5688 5693 5696 5700 5704 5708 5710 5715 5722 5728 5736 5740 5748 5753 5759 5764
5644 5638 5643 5640 5637 5642 5643 5646 5646 5646 5646 5647 5649 5651 5652 5649 5645 5650 5652 5654 5656 5658 5662 5663 5665 5667 5670 5672 5676 5680 5684 5688 5691 5696 5700 5704 5708 5714 5721 5726 5737 5742 5747 5752
5632 5629 5632 5629 5629 5631 5636 5633 5635 5638 5637 5638 5641 5644 5642 5639 5640 5639 5641 5643 5647 5649 5651 5653 5655 5656 5658 5661 5664 5667 5670 5674 5678 5682 5685 5690 5695 5701 5706 5713 5721 5727 5734 5741
5624 5621 5621 5622 5622 5623 5624 5623 5624 5624 5631 5631 5633 5633 5636 5634 5633 5631 5634 5634 5635 5636 5640 5641 5642 5644 5646 5647 5650 5654 5657 5661 5663 5667 5673 5677 5682 5686 5692 5698 5707 5714 5721 5728
5616 5616 5615 5616 5619 5616 5617 5619 5619 5618 5619 5619 5621 5625 5628 5626 5624 5626 5628 5628 5625 5625 5628 5630 5631 5632 5632 5634 5636 5637 5638 5642 5648 5651 5655 5662 5669 5672 5677 5683 5691 5700 5707 5715
5611 5610 5610 5610 5610 5606 5604 5607 5610 5609 5608 5609 5610 5616 5616 5618 5616 5616 5620 5618 5616 5616 5617 5619 5620 5622 5623 5623 5622 5622 5624 5625 5625 5628 5636 5644 5650 5656 5663 5669 5676 5684 5693 5702
5606 5605 5604 5603 5602 5601 5600 5600 5601 5601 5601 5599 5601 5603 5607 5607 5607 5608 5609 5608 5607 5606 5606 5606 5607 5608 5609 5611 5612 5611 5610 5609 5608 5609 5613 5617 5626 5636 5644 5653 5662 5671 5680 5690
5601 5600 5597 5597 5595 5594 5592 5592 5593 5593 5593 5593 5593 5592 5597 5599 5600 5600 5599 5598 5596 5596 5596 5595 5594 5594 5594 5593 5593 5594 5595 5594 5592 5594 5595 5597 5602 5608 5620 5635 5646 5658 5667 5677
5596 5595 5593 5592 5591 5589 5589 5589 5588 5587 5586 5587 5587 5589 5591 5591 5592 5592 5588 5585 5586 5585 5584 5582 5581 5580 5579 5579 5577 5576 5574 5574 5574 5576 5580 5582 5585 5590 5597 5609 5627 5643 5655 5664
5592 5590 5588 5587 5585 5584 5584 5583 5584 5582 5583 5582 5582 5581 5580 5582 5579 5577 5577 5574 5574 5572 5571 5569 5566 5565 5563 5562 5560 5556 5554 5552 5552 5555 5561 5567 5572 5576 5581 5590 5609 5627 5640 5653
5588 5586 5585 5583 5583 5582 5582 5579 5578 5576 5577 5575 5573 5572 5570 5568 5566 5568 5564 5560 5560 5559 5557 5554 5550 5548 5547 5543 5539 5533 5530 5528 5529 5534 5541 5549 5555 5562 5568 5575 5593 5612 5628 5641
5585 5583 5582 5580 5579 5578 5577 5573 5572 5568 5568 5563 5562 5559 5558 5555 5553 5554 5549 5550 5547 5545 5542 5538 5535 5533 5529 5525 5520 5516 5514 5510 5511 5517 5525 5533 5540 5549 5557 5566 5579 5600 5617 5633
5582 5580 5578 5576 5574 5574 5570 5568 5565 5563 5562 5556 5551 5548 5545 5542 5539 5537 5536 5535 5534 5531 5528 5524 5521 5518 5513 5511 5509 5508 5505 5503 5503 5506 5511 5519 5529 5538 5547 5556 5570 5588 5609 5625
5581 5578 5575 5573 5571 5568 5565 5562 5558 5554 5551 5544 5542 5538 5532 5528 5525 5523 5521 5520 5518 5517 5512 5510 5506 5505 5502 5501 5500 5499 5496 5494 5494 5497 5502 5511 5519 5529 5538 5548 5565 5584 5602 5616
5579 5577 5574 5571 5567 5562 5560 5554 5550 5544 5538 5534 5526 5522 5516 5512 5511 5509 5507 5507 5503 5502 5499 5497 5496 5495 5495 5493 5491 5489 5488 5487 5490 5490 5494 5501 5512 5521 5534 5547 5562 5579 5594 5609
5575 5573 5569 5565 5562 5557 5552 5547 5540 5532 5526 5519 5511 5506 5502 5500 5499 5497 5496 5495 5494 5491 5491 5489 5489 5488 5487 5486 5486 5486 5486 5487 5487 5490 5496 5503 5510 5523 5535 5549 5565 5579 5594 5607
5571 5568 5564 5560 5554 5550 5544 5535 5527 5519 5513 5506 5502 5498 5494 5492 5491 5489 5489 5487 5486 5485 5484 5484 5484 5484 5484 5483 5483 5483 5485 5485 5488 5493 5500 5506 5515 5527 5540 5553 5568 5582 5595 5606
5567 5563 5558 5555 5547 5539 5532 5524 5515 5509 5503 5497 5493 5491 5488 5486 5486 5484 5483 5481 5480 5480 5480 5480 5481 5479 5480 5480 5481 5482 5485 5485 5488 5495 5500 5506 5519 5537 5548 5559 5571 5583 5596 5606